This demonstration page uses our WeatherBlox Daily Observations layout. Learn more.

Left ArrowRight Arrow

38.89511, -77.03637

Hourly Observations for January 1, 2021

Temp ( °F °C ) Dew Point ( °F °C ) Humidity (%) Winds ( mph kmh ) Pressure ( in mb ) Visibility ( mi km ) Precip ( " mm )
12:52 am 00:52 Cloudy 41 5 28 -2.2 60 60 NNE 13 20 30.44 1031 10 16 0.00 0.00
1:52 am 01:52 Cloudy 39 3.9 28 -2.2 65 65 NNE 10 17 30.46 1032 10 16 0.00 0.00
2:52 am 02:52 Cloudy 39 3.9 27 -2.8 62 62 NNE 9 15 30.47 1032 10 16 0.00 0.00
3:52 am 03:52 Cloudy 38 3.3 26 -3.3 62 62 NNE 8 13 30.48 1032 10 16 0.00 0.00
4:52 am 04:52 Cloudy 38 3.3 26 -3.3 62 62 NE 9 15 30.49 1033 10 16 0.00 0.00
5:52 am 05:52 Cloudy 37 2.8 26 -3.3 65 65 NNE 8 13 30.50 1033 10 16 0.00 0.00
6:52 am 06:52 Cloudy 37 2.8 25 -3.9 62 62 NE 10 17 30.49 1033 10 16 0.00 0.00
7:52 am 07:52 Cloudy 37 2.8 25 -3.9 62 62 NNE 6 9 30.51 1033 10 16 0.00 0.00
8:52 am 08:52 Cloudy 37 2.8 25 -3.9 62 62 NE 7 11 30.52 1034 10 16 0.00 0.00
9:52 am 09:52 Cloudy 37 2.8 26 -3.3 65 65 NE 10 17 30.49 1032 10 16 0.00 0.00
10:52 am 10:52 Cloudy with Light Rain 38 3.3 28 -2.2 68 68 NE 6 9 30.47 1032 10 16 0.00 0.00
11:47 am 11:47 Cloudy with Rain 36 2 30 -1 81 81 NNE 6 9 30.44 1031 4 6 0.03 0.76
11:52 am 11:52 Cloudy with Light Rain 36 2.2 30 -1.1 79 79 NE 5 7 30.44 1031 4 6 0.04 1.02
12:32 pm 12:32 Cloudy with Light Rain 37 2.8 32 0 82 82 NE 8 13 30.39 1029 10 16 0.01 0.25
12:52 pm 12:52 Cloudy 37 2.8 32 0 82 82 NE 8 13 30.37 1028 10 16 0.01 0.25
1:47 pm 13:47 Cloudy with Light Rain 37 3 34 1 87 87 NE 8 13 30.34 1028 10 16 0.00 0.00
1:52 pm 13:52 Cloudy 37 2.8 33 0.6 86 86 NE 9 15 30.31 1027 10 16 0.00 0.00
2:10 pm 14:10 Cloudy with Light Rain 37 2.8 33 0.6 86 86 NNE 6 9 30.33 1027 10 16 0.00 0.00
2:20 pm 14:20 Cloudy with Light Rain 37 2.8 33 0.6 86 86 NE 7 11 30.32 1027 10 16 0.00 0.00
2:23 pm 14:23 Cloudy 37 2.8 33 0.6 86 86 NE 6 9 30.33 1027 10 16 0.00 0.00
2:37 pm 14:37 Cloudy 37 2.8 33 0.6 86 86 NE 7 11 30.33 1027 10 16 0.00 0.00
2:52 pm 14:52 Cloudy 37 2.8 33 0.6 86 86 NNE 6 9 30.32 1027 10 16 0.00 0.00
3:14 pm 15:14 Cloudy with Light Rain 38 3.3 33 0.6 83 83 NNE 8 13 30.31 1027 7 11 0.00 0.00
3:19 pm 15:19 Cloudy with Light Rain 37 2.8 33 0.6 86 86 N 6 9 30.33 1027 3 4 0.00 0.00
3:36 pm 15:36 Cloudy with Light Rain 37 2.8 34 1.1 89 89 NNE 7 11 30.30 1026 3 5 0.02 0.51
3:52 pm 15:52 Cloudy with Light Rain 37 2.8 34 1.1 89 89 NNE 12 19 30.28 1025 3 4 0.02 0.51
3:54 pm 15:54 Cloudy with Light Rain 37 2.8 34 1.1 89 89 NNE 10 17 30.29 1026 3 5 0.01 0.25
4:03 pm 16:03 Cloudy with Rain 37 2.8 34 1.1 89 89 N 12 19 30.29 1026 3 5 0.02 0.51
4:52 pm 16:52 Cloudy with Rain 36 2.2 34 1.1 93 93 NE 9 15 30.25 1025 4 6 0.13 3.30
5:52 pm 17:52 Cloudy with Light Rain 37 2.8 35 1.7 93 93 N 5 7 30.22 1023 6 10 0.16 4.06
6:52 pm 18:52 Cloudy with Light Rain 37 2.8 35 1.7 93 93 NW 3 6 30.20 1023 5 8 0.10 2.54
7:32 pm 19:32 Cloudy with Rain 38 3.3 36 2.2 93 93 N 5 7 30.19 1022 4 6 0.09 2.29
7:40 pm 19:40 Cloudy with Heavy Rain 38 3.3 36 2.2 93 93 NNW 5 7 30.18 1022 3 5 0.12 3.05
7:52 pm 19:52 Cloudy with Light Rain 38 3.3 36 2.2 93 93 NNW 7 11 30.18 1022 5 8 0.15 3.81
8:30 pm 20:30 Cloudy with Rain 38 3.3 35 1.7 89 89 NNW 9 15 30.17 1022 4 6 0.05 1.27
8:41 pm 20:41 Cloudy with Light Rain 37 2.8 35 1.7 93 93 N 9 15 30.16 1021 6 10 0.07 1.78
8:52 pm 20:52 Cloudy with Light Rain 37 2.8 35 1.7 93 93 N 8 13 30.13 1020 10 16 0.08 2.03
9:03 pm 21:03 Cloudy with Light Rain 37 2.8 35 1.7 93 93 NNW 6 9 30.13 1020 7 11 0.00 0.00
9:09 pm 21:09 Cloudy with Light Rain 37 2.8 35 1.7 93 93 NW 5 7 30.12 1020 6 10 0.01 0.25
9:17 pm 21:17 Cloudy with Rain 37 2.8 36 2.2 96 96 VRB 3 6 30.10 1019 5 8 0.02 0.51
9:52 pm 21:52 Cloudy with Rain 38 3.3 36 2.2 93 93 ESE 17 28 29.93 1014 3 5 0.10 2.54
10:12 pm 22:12 Cloudy with Light Rain 38 3.3 36 2.2 93 93 WNW 7 11 30.01 1016 10 16 0.02 0.51
10:47 pm 22:47 Cloudy 37 3 36 2 93 93 NW 9 15 30.01 1016 10 16 0.02 0.51
10:52 pm 22:52 Cloudy 38 3.3 36 2.2 93 93 NW 8 13 30.01 1016 10 16 0.02 0.51
11:52 pm 23:52 Cloudy 38 3.3 35 1.7 89 89 NW 9 15 29.99 1016 10 16 0.00 0.00
11:59 pm 23:59 Cloudy 38 3.3 35 1.7 89 89 NW 9 15 29.99 1016 10 16 0.00 0.00

Powered by AerisWeather